www.pogodaiklimat.ru

Погода и климат >> Архив погоды >> Мексика >> Piedras Negras


ПОГОДА в Piedras Negras

  • Прогноз погоды в Piedras Negras
  • Монитор погоды в Piedras Negras
  • Климат города

АРХИВ ПОГОДЫ в Piedras Negras

Время (UTC), дата Ветер
(напр.,м/с)
 
Видим.   Явления Облачность Т
(С)
Тd
(С)
f
(%)
Тe
(С)
Тes
(С)
Комфортность P
(гПа)
Po
(гПа)
Тmin
(С)
Tmax
(С)
R
(мм)
R24
(мм)
S
(см)
21 20.06 В 2 24 км 5/5 540 м
[Sc diur, vesp]
+37.8 +24.1 46 +49 +57 опасность
перегрева
1012.1 984.3
00 21.06 СВ 1 24 км 5/5 300 м
[Sc diur, vesp]
+37.8 +21.9 40 +46 +47 опасность
перегрева
1009.2 981.8 +25.8 +39.5
03 21.06 В 1 20 км ясно +33.6 +18.3 40 +38 +38 очень
душно
1009.9 982.6
06 21.06 ЮВ 1 20 км ясно +31.0 +18.8 48 +36 +36 очень
душно
1011.6 984.2 +25.8 +39.5
12 21.06 В 2 22 км ясно +26.6 +22.5 78 +35 +35 очень
душно
1013.2 985.3 +26.0 +39.5
15 21.06 Ю 1 23 км ясно +29.8 +21.9 63 +38 +49 очень
душно
1012.2 984.2
18 21.06 З 1 24 км ясно +37.0 +21.9 42 +45 +70 опасность
перегрева
1009.8 982.0 +26.0 +37.8
21 21.06 С 1 24 км 5/5 480 м
[Sc diur, vesp]
+40.0 +21.0 34 +47 +56 опасность
перегрева
1006.5 979.0
00 22.06 ЮВ 1 24 км ясно +39.2 +21.4 36 +46 +49 опасность
перегрева
1003.1 975.9 +26.0 +41.5
03 22.06 СВ 1 20 км ясно +35.0 +17.6 36 +39 +39 очень
душно
1003.8 976.8
06 22.06 В 1 20 км ясно +31.6 +17.9 44 +36 +36 очень
душно
1005.8 978.7 +26.0 +41.5
09 22.06 ЮВ 1 20 км ясно +28.2 +21.6 67 +36 +36 очень
душно
1006.1 978.7
12 22.06 В 1 20 км ясно +26.2 +20.6 71 +33 +33 очень
душно
1006.5 978.8 +25.4 +41.5
15 22.06 В 1 23 км ясно +29.6 +19.1 53 +35 +46 очень
душно
1008.0 980.1
18 22.06 ЮВ 1 24 км ясно +37.2 +19.1 35 +42 +67 опасность
перегрева
1006.7 979.0 +25.4 +38.0
21 22.06 В 1 24 км ясно +41.6 +22.1 33 +49 +68 опасность
перегрева
1002.6 975.1
00 23.06 В 1 24 км ясно +42.4 +16.2 22 +44 +47 опасность
перегрева
1000.5 973.4 +25.4 +43.2
03 23.06 В 1 20 км ясно +37.4 +15.7 28 +39 +39 очень
душно
1002.4 975.5
06 23.06 ЮВ 1 20 км ясно +32.8 +15.5 35 +35 +35 душно 1003.2 976.3 +25.4 +43.2
09 23.06 ЮВ 1 20 км ясно +30.4 +23.7 67 +41 +41 опасность
перегрева
1005.6 978.5
12 23.06 В 2 22 км ясно +28.2 +22.8 73 +38 +38 очень
душно
1007.3 979.9 +27.2 +43.2
15 23.06 ЮВ 1 23 км ясно +31.2 +19.7 50 +37 +48 очень
душно
1006.7 979.0
18 23.06 В 1 24 км ясно +38.2 +21.1 37 +45 +70 опасность
перегрева
1007.4 979.8 +27.2 +39.0
21 23.06 ЮВ 1 24 км ясно +44.0 +20.8 27 +50 +69 опасность
перегрева
1004.9 977.5
00 24.06 ЮВ 1 24 км ясно +44.0 +19.3 25 +49 +52 опасность
перегрева
1002.8 975.8 +27.2 +45.0
03 24.06 В 1 20 км ясно +38.2 +17.9 31 +42 +42 опасность
перегрева
1005.3 978.5
06 24.06 В 2 20 км ясно +33.8 +23.4 55 +45 +45 опасность
перегрева
1010.4 983.4 +27.2 +45.0
09 24.06 СЗ 4 20 км 10/10 480 м
[Sc diur, vesp]
+30.2 +26.6 81 +47 +47 опасность
перегрева
1013.6 986.3
12 24.06 В 2 22 км 5/0
[Ci]
+27.2 +22.0 73 +35 +35 очень
душно
1011.3 983.8 +26.8 +45.0
15 24.06 ЮВ 1 22 км 4/4 420 м
[Sc diur, vesp]
+30.2 +25.5 76 +44 +51 опасность
перегрева
1014.2 986.3
18 24.06 В 1 23 км 6/6 420 м
[Sc diur, vesp]
+34.4 +26.6 64 +52 +62 опасность
перегрева
1015.6 987.6 +26.8 +35.2
21 24.06 В 2 23 км 8/8 480 м
[Sc diur, vesp]
+38.4 +19.2 33 +43 +46 опасность
перегрева
1015.2 987.4
00 25.06 В 2 23 км 8/8 300 м
[Sc diur, vesp]
+32.6 +21.0 51 +40 +41 очень
душно
1014.1 986.4 +26.8 +39.6
03 25.06 В 2 20 км ясно +29.0 +20.3 59 +35 +35 очень
душно
1016.2 988.5
06 25.06 ЮВ 1 20 км 4/4 400 м
[Sc diur, vesp]
+26.8 +21.2 71 +34 +34 очень
душно
1017.3 989.5 +26.8 +39.6
09 25.06 В 2 20 км 10/10 420 м
[Sc diur, vesp]
+25.4 +22.7 85 +33 +33 очень
душно
1017.7 989.6
12 25.06 В 1 20 км 10/10 420 м
[Sc diur, vesp]
+25.0 +22.2 84 +32 +32 очень
душно
1018.5 990.1 +24.0 +39.6
15 25.06 В 1 22 км 10/10 500 м
[Sc diur, vesp]
+26.4 +21.4 74 +34 +34 очень
душно
1021.2 992.7
18 25.06 ЮВ 1 23 км 9/9 540 м
[Sc diur, vesp]
+32.0 +22.5 57 +41 +44 опасность
перегрева
1020.5 992.1 +24.0 +32.6
21 25.06 СВ 1 24 км 9/9 480 м
[Sc diur, vesp Ci]
+36.2 +24.6 51 +49 +50 опасность
перегрева
1018.8 990.7
00 26.06 ЮВ 4 23 км слабая морось 10/10 300 м
[Sc diur, vesp]
+31.0 +26.6 77 +47 +47 опасность
перегрева
1018.7 990.7 2
03 26.06 ЮВ 1 20 км ясно +27.0 +23.2 80 +36 +36 очень
душно
1020.1 992.2
06 26.06 В 1 20 км ясно +25.8 +23.4 87 +35 +35 очень
душно
1018.2 990.2 +24.0 +38.0
09 26.06 В 2 20 км ясно +24.8 +22.9 89 +33 +33 очень
душно
1020.5 992.2
12 26.06 В 2 22 км 6/6 300 м
[Sc diur, vesp]
+24.4 +23.0 92 +32 +32 очень
душно
1019.4 990.9 +23.0 +38.0
15 26.06 СВ 1 23 км 9/9 300 м
[St]
+26.8 +23.0 80 +36 +37 очень
душно
1019.9 991.3
18 26.06 В 1 23 км 8/8 360 м
[Sc diur, vesp]
+32.2 +22.4 56 +41 +46 опасность
перегрева
1018.0 989.6 +23.0 +33.0
21 26.06 В 1 23 км 8/8 360 м
[Sc diur, vesp]
+36.6 +21.7 42 +44 +48 опасность
перегрева
1014.3 986.3
00 27.06 ЮВ 1 24 км 5/5 300 м
[Sc diur, vesp]
+36.2 +20.9 41 +43 +45 опасность
перегрева
1011.2 983.5 +23.0 +37.5
03 27.06 В 2 20 км 8/8 420 м
[Sc diur, vesp]
+30.4 +26.2 78 +46 +46 опасность
перегрева
1011.9 984.3
06 27.06 В 2 20 км 4/4 420 м
[Sc diur, vesp]
+28.0 +24.3 80 +39 +39 очень
душно
1013.9 986.3 +23.0 +37.5
09 27.06 В 2 20 км {дождь} 10/10 210 м
[Frnb]
+25.6 +24.0 91 +35 +35 очень
душно
1016.1 988.1 2
12 27.06 В 2 22 км 10/10 300 м
[Sc diur, vesp]
+25.0 +23.4 91 +34 +34 очень
душно
1016.4 988.2 +24.2 +37.5
15 27.06 В 1 23 км 8/8 360 м
[Sc diur, vesp]
+28.4 +23.0 73 +38 +40 очень
душно
1015.9 987.6
18 27.06 СВ 1 23 км 8/8 360 м
[Sc diur, vesp]
+32.2 +21.8 54 +41 +46 опасность
перегрева
1015.0 986.8 +24.2 +32.8

 

Местоположение метеостанции Piedras Negras (Мексика): широта 28.70 долгота -100.50 высота над уровнем моря 250 м.

В архиве по умолчанию представлена погода в Piedras Negras за последнюю неделю. Архивные данные за месяц целиком и за предыдущие месяцы, начиная с января 2011 года, Вы можете получить, выбрав интересующий диапазон дат из раскрывающегося списка и нажав кнопку "Ввод!".

Внимание! Время в таблицах - всемирное. Для получения местного времени необходимо прибавить поправку, которая в Piedras Negras равна -7 ч.

Смотрите также архив погоды в соседних городах и на ближайших метеорологических станциях:

Погода в Monclova (Мексика) (221 км)
Погода в Monterrey (Мексика) (331 км)
Погода в Saltillo (Мексика) (374 км)
Погода в Torreon (Мексика) (455 км)
Погода в Chihuahua University (Мексика) (537 км)
Погода в Hidalgo del Parral (Мексика) (539 км)
Погода в Chihuahua (Мексика) (544 км)
Погода в Ciudad Victoria (Мексика) (569 км)
Погода в Soto La Marina (Мексика) (594 км)
Погода в Tepehuanes (Мексика) (638 км)

Пояснения к столбцам:

Ветер - указаны скорость ветра в м/с - средняя за 10 мин, порывы в срок и между сроками (в фигурных скобках) и направление, откуда дует ветер: С - северный, СВ - северо-восточный, В - восточный, ЮВ - юго-восточный, Ю - южный, ЮЗ - юго-западный, З - западный, СЗ - северо-западный.
Видимость - горизонтальная дальность видимости в метрах или километрах. При видимости от 1 до 10 км при отсутствии осадков обычно наблюдается дымка, при ухудшении видимости до 1 км и менее - туман. В сухую погоду видимость может ухудшаться дымом, пылью или мглою.
Явления - указаны атмосферные явления, наблюдавшиеся в срок или в последний час перед сроком; фигурными скобками обозначены явления, наблюдавшиеся между сроками (за 1-3 часа до срока); квадратными скобками обозначены град или гололедные отложения с указанием их диаметра в мм.
Облачность - указаны через наклонную черту общая и нижняя облачность в баллах и высота нижней границы облаков в метрах; квадратными скобками обозначены формы облаков: Ci - перистые, Cs - перисто-слоистые, Cc - перисто-кучевые, Ac - высококучевые, As - высокослоистые, Sc - слоисто-кучевые, Ns - слоисто-дождевые, Cu - кучевые, Cb - кучево-дождевые. Подробнее классификацию облаков см. в Атласе облаков (PDF).
T - Температура воздуха - температура, измеренная на высоте 2 м над землей.
Td - Температура точки росы - температура, при понижении до которой содержащийся в воздухе водяной пар достигнет насыщения.
f - Относительная влажность воздуха - влажноcть воздуха, измеренная на высоте 2 м над землей.
Te - Эффективная температура - температура, которую ощущает одетый по сезону человек в тени. Характеристика душности погоды. При расчете учитывается влияние влажности воздуха и скорости ветра на теплоощущения человека.
Tes - Эффективная температура на солнце - температура, которую ощущает человек, с поправкой на солнечный нагрев. Характеристика знойности погоды. Зависит от высоты солнца над горизонтом, облачности и скорости ветра. Ночью, в пасмурную погоду, а также при ветре 12 м/с и более поправка равна нулю.
P - Атмосферное давление - приведенное к уровню моря атмосферное давление.
Po - Атмосферное давление - измеренное на уровне метеостанции атмосферное давление.
Tmin - Минимальная температура - минимум температуры воздуха на высоте 2 м над землей.
Tmax - Максимальная температура - максимум температуры воздуха на высоте 2 м над землей.
R - Количество осадков - Количество выпавших осадков за период времени, мм. При наведении курсора мыши на число - период времени, за который выпало указанное количество осадков.
R24 - Количество осадков - Количество выпавших осадков за 24 часа, мм.
S - Снежный покров - Высота снежного покрова, см. При наведении курсора мыши на число - состояние снежного покрова и степень покрытия местности в баллах.